User: anonymous   Login
Location: *
(10.4782°N, 67.2163°W)
Time: 16:56:51
(UTC+00:00)
Language:

Cosmos 1943 - Orbit

View from above orbital plane
View from above orbital plane
View from above satellite
View from above satellite

Ground track
Ground track

The orbit data is extracted from the following two-line orbital elements,

1 19119U 88039A   24202.05614661 -.00000038  00000-0  51047-5 0  9992
2 19119  71.0032  62.0903 0009333  75.2207  33.8564 14.15468290868503
Epoch (UTC): 20 July 2024 01:20:51
Eccentricity: 0.0009333
inclination: 71.0032°
perigee height: 834 km
apogee height: 847 km
right ascension of ascending node: 62.0903°
argument of perigee: 75.2207°
revolutions per day: 14.15468290
mean anomaly at epoch: 33.8564°
orbit number at epoch: 86850

The dashed part of the orbit path shows where the satellite is in the earth's shadow,  

DLR